DW2736 Weather Reports


Display with metric or nautical units.
time (UTC)temp
F
wind
direction
speed
MPH
gust
MPH
rain 1hr
in
rain 24hr
in
rain mn
in
humidity
%
barometer
mb
20190123030229 43 274 0.0 0.0 0.00 0.00 0.00 83 1028.9
20190123025227 43 274 0.0 0.0 0.00 0.00 0.00 82 1028.9
20190123024726 43 274 0.0 0.0 0.00 0.00 0.00 82 1028.7
20190123024220 43 274 0.0 0.0 0.00 0.00 0.00 82 1028.7
20190123023714 43 274 0.0 0.0 0.00 0.00 0.00 81 1028.6
20190123023230 44 274 0.0 0.0 0.00 0.00 0.00 81 1028.3
20190123022728 44 274 0.0 0.0 0.00 0.00 0.00 80 1028.4
20190123022225 44 274 0.0 0.0 0.00 0.00 0.00 79 1028.2
20190123021721 45 274 0.0 0.0 0.00 0.00 0.00 78 1028.1
20190123021217 45 274 0.0 0.0 0.00 0.00 0.00 77 1028.2
20190123020731 45 274 0.0 0.0 0.00 0.00 0.00 76 1028.3
20190123020240 46 274 0.0 0.0 0.00 0.00 0.00 76 1028.4
20190123015721 46 274 0.0 0.0 0.00 0.00 0.00 75 1028.5
20190123015218 46 274 0.0 0.0 0.00 0.00 0.00 74 1028.5
20190123014717 47 274 0.0 2.0 0.00 0.00 0.00 74 1028.5
20190123014215 47 274 0.0 2.0 0.00 0.00 0.00 73 1028.5
20190123013714 47 274 0.0 0.0 0.00 0.00 0.00 72 1028.4
20190123013214 48 274 0.0 0.0 0.00 0.00 0.00 71 1028.4
20190123012731 48 274 0.0 0.0 0.00 0.00 0.00 69 1028.4
20190123012226 48 274 0.0 0.0 0.00 0.00 0.00 67 1028.4
20190123011723 49 274 0.0 0.0 0.00 0.00 0.00 66 1028.3
20190123011217 49 274 0.0 0.0 0.00 0.00 0.00 66 1028.4
20190123010733 50 274 0.0 0.0 0.00 0.00 0.00 64 1028.4
20190123010240 50 274 0.0 0.0 0.00 0.00 0.00 63 1028.4
20190123005724 50 274 0.0 0.0 0.00 0.00 0.00 63 1028.4
20190123005216 50 274 0.0 0.0 0.00 0.00 0.00 63 1028.4
20190123004731 50 274 0.0 0.0 0.00 0.00 0.00 63 1028.4
20190123004227 51 274 0.0 0.0 0.00 0.00 0.00 64 1028.5
20190123003721 51 274 0.0 0.0 0.00 0.00 0.00 63 1028.4
20190123003235 51 274 0.0 0.0 0.00 0.00 0.00 62 1028.4
20190123002730 51 274 0.0 0.0 0.00 0.00 0.00 63 1028.5
20190123002243 51 274 0.0 0.0 0.00 0.00 0.00 61 1028.5
20190123000716 51 274 0.0 0.0 0.00 0.00 0.00 60 1028.4
20190123000245 51 274 0.0 0.0 0.00 0.00 0.00 60 1028.3
20190122235724 51 274 0.0 0.0 0.00 0.00 0.00 61 1028.2
20190122235221 51 274 0.0 0.0 0.00 0.00 0.00 60 1028.2
20190122234716 51 274 0.0 0.0 0.00 0.00 0.00 61 1028.1
20190122234233 51 274 0.0 0.0 0.00 0.00 0.00 61 1028.1
20190122233729 51 274 0.0 0.0 0.00 0.00 0.00 61 1028.2
20190122233225 51 274 0.0 0.0 0.00 0.00 0.00 61 1028.1
20190122232720 51 274 0.0 0.0 0.00 0.00 0.00 61 1028.0
20190122232217 51 274 0.0 0.0 0.00 0.00 0.00 61 1028.0
20190122231714 51 274 0.0 0.0 0.00 0.00 0.00 61 1028.1
20190122231233 51 274 0.0 0.0 0.00 0.00 0.00 61 1028.2
20190122230727 51 274 0.0 0.0 0.00 0.00 0.00 63 1028.4
20190122230238 51 274 0.0 0.0 0.00 0.00 0.00 61 1028.4
20190122225717 51 274 0.0 0.0 0.00 0.00 0.00 61 1028.4
20190122225213 50 274 0.0 0.0 0.00 0.00 0.00 63 1028.3
20190122224713 50 274 0.0 0.0 0.00 0.00 0.00 63 1028.3
20190122224230 50 274 0.0 5.0 0.00 0.00 0.00 62 1028.1
20190122223726 50 274 0.0 5.0 0.00 0.00 0.00 62 1028.1
20190122223221 51 274 1.0 4.0 0.00 0.00 0.00 62 1028.0
20190122222718 51 274 0.0 3.0 0.00 0.00 0.00 65 1027.8
20190122222213 51 274 0.0 4.0 0.00 0.00 0.00 61 1027.9
20190122221729 51 274 0.0 4.0 0.00 0.00 0.00 61 1028.0
20190122221224 51 274 0.0 0.0 0.00 0.00 0.00 61 1028.0
20190122220721 51 274 0.0 2.0 0.00 0.00 0.00 63 1027.9
20190122220229 51 274 0.0 2.0 0.00 0.00 0.00 64 1027.8
20190122215727 52 274 0.0 4.0 0.00 0.00 0.00 63 1027.8
20190122215222 52 274 0.0 4.0 0.00 0.00 0.00 63 1027.8
20190122214719 52 274 0.0 4.0 0.00 0.00 0.00 61 1027.9
20190122214214 52 274 1.0 5.0 0.00 0.00 0.00 62 1027.9
20190122213729 52 292 0.0 5.0 0.00 0.00 0.00 62 1027.9
20190122213224 53 292 0.0 3.0 0.00 0.00 0.00 60 1027.9
20190122212719 53 292 0.0 2.0 0.00 0.00 0.00 58 1027.8
20190122212219 53 169 0.0 2.0 0.00 0.00 0.00 57 1027.9
20190122211714 53 165 0.0 4.0 0.00 0.00 0.00 56 1028.0
20190122211231 53 160 0.0 4.0 0.00 0.00 0.00 57 1028.0
20190122210726 53 166 0.0 2.0 0.00 0.00 0.00 57 1027.9
20190122210233 53 161 0.0 3.0 0.00 0.00 0.00 56 1028.0
20190122205714 53 163 0.0 5.0 0.00 0.00 0.00 58 1027.9
20190122205230 53 165 0.0 5.0 0.00 0.00 0.00 58 1027.8
20190122204726 53 228 0.0 5.0 0.00 0.00 0.00 59 1027.7
20190122204223 53 242 0.0 5.0 0.00 0.00 0.00 54 1027.7
20190122203720 53 246 1.0 5.0 0.00 0.00 0.00 52 1027.7
20190122203216 53 294 1.0 4.0 0.00 0.00 0.00 52 1027.6
20190122202731 53 203 0.0 5.0 0.00 0.00 0.00 55 1027.7
20190122202227 52 291 0.0 6.0 0.00 0.00 0.00 50 1027.8
20190122201723 52 297 0.0 6.0 0.00 0.00 0.00 48 1027.7
20190122201220 52 245 1.0 4.0 0.00 0.00 0.00 51 1027.7
20190122200716 52 243 0.0 1.0 0.00 0.00 0.00 48 1027.9
20190122200230 52 243 0.0 1.0 0.00 0.00 0.00 48 1027.8
20190122195733 51 190 0.0 0.0 0.00 0.00 0.00 50 1027.8
20190122195227 51 190 0.0 2.0 0.00 0.00 0.00 52 1027.9
20190122194726 51 190 0.0 3.0 0.00 0.00 0.00 53 1027.9
20190122194220 51 190 0.0 0.0 0.00 0.00 0.00 51 1028.0
20190122193715 51 190 0.0 0.0 0.00 0.00 0.00 53 1028.2
20190122193230 51 190 0.0 0.0 0.00 0.00 0.00 52 1028.4
20190122192727 51 190 0.0 0.0 0.00 0.00 0.00 52 1028.4
20190122192222 50 190 0.0 3.0 0.00 0.00 0.00 53 1028.5
20190122191717 50 190 0.0 3.0 0.00 0.00 0.00 53 1028.6
20190122191232 50 190 0.0 4.0 0.00 0.00 0.00 56 1028.6
20190122190727 50 190 0.0 4.0 0.00 0.00 0.00 56 1028.6
20190122190236 49 195 0.0 0.0 0.00 0.00 0.00 56 1028.7
20190122185717 49 201 0.0 0.0 0.00 0.00 0.00 58 1028.8
20190122185233 49 201 0.0 0.0 0.00 0.00 0.00 60 1028.8
20190122184731 49 201 0.0 0.0 0.00 0.00 0.00 62 1028.8
20190122184227 48 202 0.0 0.0 0.00 0.00 0.00 62 1028.8
20190122183731 48 202 0.0 0.0 0.00 0.00 0.00 63 1028.7
20190122183224 47 202 0.0 0.0 0.00 0.00 0.00 63 1028.7
20190122182719 46 202 0.0 0.0 0.00 0.00 0.00 66 1028.6
20190122182216 46 202 0.0 0.0 0.00 0.00 0.00 69 1028.3
20190122181731 45 202 0.0 0.0 0.00 0.00 0.00 74 1028.3
20190122181226 44 202 0.0 0.0 0.00 0.00 0.00 75 1028.2
20190122180722 43 202 0.0 0.0 0.00 0.00 0.00 73 1028.1
20190122180230 42 125 0.0 0.0 0.00 0.00 0.00 76 1028.0
20190122175730 41 120 0.0 0.0 0.00 0.00 0.00 79 1027.8
20190122175228 41 120 0.0 0.0 0.00 0.00 0.00 82 1027.9
20190122174725 40 120 0.0 0.0 0.00 0.00 0.00 81 1027.9
20190122174222 40 120 0.0 0.0 0.00 0.00 0.00 82 1027.9
20190122173718 40 120 0.0 0.0 0.00 0.00 0.00 83 1027.8
20190122173232 40 120 0.0 0.0 0.00 0.00 0.00 82 1027.7
20190122172730 39 120 0.0 0.0 0.00 0.00 0.00 79 1027.7
20190122172226 38 120 0.0 0.0 0.00 0.00 0.00 80 1027.7
20190122171729 38 120 0.0 0.0 0.00 0.00 0.00 79 1027.9
20190122171226 38 120 0.0 0.0 0.00 0.00 0.00 79 1027.9
20190122170723 37 120 0.0 0.0 0.00 0.00 0.00 79 1027.9
20190122170233 37 120 0.0 0.0 0.00 0.00 0.00 78 1027.9
20190122165714 37 120 0.0 0.0 0.00 0.00 0.00 78 1027.9
20190122165229 37 120 0.0 0.0 0.00 0.00 0.00 78 1027.9
20190122164726 37 120 0.0 0.0 0.00 0.00 0.00 80 1027.8
20190122164221 36 120 0.0 0.0 0.00 0.00 0.00 78 1027.7
20190122163715 36 120 0.0 0.0 0.00 0.00 0.00 78 1027.4
20190122163230 36 120 0.0 0.0 0.00 0.00 0.00 78 1027.3
20190122162728 36 120 0.0 0.0 0.00 0.00 0.00 75 1027.2
20190122162226 35 120 0.0 0.0 0.00 0.00 0.00 78 1027.1
20190122161723 35 120 0.0 0.0 0.00 0.00 0.00 79 1027.0
20190122161219 35 120 0.0 0.0 0.00 0.00 0.00 78 1026.8
20190122160714 35 120 0.0 0.0 0.00 0.00 0.00 80 1026.7
20190122160229 34 120 0.0 0.0 0.00 0.00 0.00 79 1026.9
20190122155732 34 120 0.0 0.0 0.00 0.00 0.00 78 1026.9
20190122155229 34 120 0.0 0.0 0.00 0.00 0.00 79 1026.9
20190122154727 34 120 0.0 0.0 0.00 0.00 0.00 79 1026.8
20190122154226 34 120 0.0 0.0 0.00 0.00 0.00 79 1026.7
20190122153722 34 120 0.0 0.0 0.00 0.00 0.00 78 1026.7
20190122153219 34 120 0.0 0.0 0.00 0.00 0.00 78 1026.7
20190122152717 34 120 0.0 0.0 0.00 0.00 0.00 78 1026.7
20190122152215 34 120 0.0 0.0 0.00 0.00 0.00 78 1026.7
20190122151732 34 120 0.0 0.0 0.00 0.00 0.00 79 1026.7
20190122151228 34 120 0.0 0.0 0.00 0.00 0.00 79 1026.6
20190122150723 34 120 0.0 0.0 0.00 0.00 0.00 79 1026.6
20190122150231 34 120 0.0 0.0 0.00 0.00 0.00 79 1026.6
20190122145732 34 120 0.0 0.0 0.00 0.01 0.00 79 1026.7
20190122145228 34 120 0.0 0.0 0.00 0.01 0.00 78 1026.6
20190122144724 34 120 0.0 0.0 0.00 0.01 0.00 78 1026.6
20190122144225 34 120 0.0 0.0 0.00 0.01 0.00 77 1026.5
20190122143720 34 120 0.0 0.0 0.00 0.01 0.00 77 1026.4
20190122143217 34 120 0.0 0.0 0.00 0.01 0.00 78 1026.2
20190122142733 35 120 0.0 0.0 0.00 0.01 0.00 77 1026.2
20190122142229 35 120 0.0 0.0 0.00 0.01 0.00 77 1026.1
20190122141724 35 120 0.0 0.0 0.00 0.01 0.00 77 1026.2
20190122141221 34 120 0.0 0.0 0.00 0.01 0.00 78 1026.0
20190122140717 35 120 0.0 0.0 0.00 0.01 0.00 78 1026.0
20190122140246 35 120 0.0 0.0 0.00 0.01 0.00 78 1026.0
20190122135726 35 121 0.0 0.0 0.00 0.01 0.00 77 1026.0
20190122135221 35 121 0.0 0.0 0.00 0.01 0.00 77 1026.1
20190122134716 35 121 0.0 0.0 0.00 0.01 0.00 76 1026.1
20190122134233 35 121 0.0 0.0 0.00 0.01 0.00 76 1026.1
20190122133729 35 120 0.0 0.0 0.00 0.01 0.00 76 1026.0
20190122133225 35 121 0.0 0.0 0.00 0.01 0.00 76 1026.2
20190122132720 35 121 0.0 0.0 0.00 0.01 0.00 76 1026.1
20190122132221 35 69 0.0 0.0 0.00 0.01 0.00 75 1026.0
20190122131717 36 69 0.0 0.0 0.00 0.01 0.00 76 1026.0
20190122131232 36 69 0.0 0.0 0.00 0.01 0.00 75 1026.0
20190122130728 36 69 0.0 0.0 0.00 0.01 0.00 74 1025.9
20190122130238 37 69 0.0 0.0 0.00 0.01 0.00 73 1026.0
20190122125721 36 69 0.0 2.0 0.00 0.01 0.00 73 1026.1
20190122125217 36 69 0.0 3.0 0.00 0.01 0.00 75 1026.0
20190122124720 35 69 0.0 3.0 0.00 0.01 0.00 78 1026.0
20190122124216 35 69 0.0 2.0 0.00 0.01 0.00 80 1026.0
20190122123716 35 68 0.0 0.0 0.00 0.01 0.00 80 1026.2
20190122123216 35 68 0.0 0.0 0.00 0.01 0.00 81 1026.2
20190122122732 35 68 0.0 0.0 0.00 0.01 0.00 81 1026.2
20190122122226 35 68 0.0 0.0 0.00 0.01 0.00 82 1026.0
20190122121724 35 68 0.0 0.0 0.00 0.01 0.00 82 1026.1
20190122121221 35 68 0.0 0.0 0.00 0.01 0.00 82 1026.1
20190122120716 35 68 0.0 0.0 0.00 0.01 0.00 82 1026.1
20190122120247 35 68 0.0 0.0 0.00 0.01 0.00 81 1026.0
20190122115727 36 68 0.0 0.0 0.00 0.01 0.00 80 1025.9
20190122115225 36 68 0.0 0.0 0.00 0.01 0.00 79 1025.9
20190122114728 36 68 0.0 0.0 0.00 0.01 0.00 79 1025.8
20190122114223 36 68 0.0 0.0 0.00 0.01 0.00 79 1025.7
20190122113720 36 68 0.0 0.0 0.00 0.01 0.00 78 1025.6
20190122113215 36 69 0.0 0.0 0.00 0.01 0.00 78 1025.5
20190122112731 36 69 0.0 0.0 0.00 0.01 0.00 77 1025.3
20190122112227 36 69 0.0 0.0 0.00 0.01 0.00 76 1025.3
20190122111723 36 69 0.0 0.0 0.00 0.01 0.00 76 1025.4
20190122111220 36 69 0.0 0.0 0.00 0.01 0.00 77 1025.4
20190122110716 37 69 0.0 0.0 0.00 0.01 0.00 76 1025.7
20190122110245 37 69 0.0 0.0 0.00 0.01 0.00 77 1025.9
20190122105726 37 69 0.0 0.0 0.00 0.01 0.00 77 1026.2
20190122105222 37 69 0.0 0.0 0.00 0.01 0.00 74 1026.3
20190122104717 37 69 0.0 0.0 0.00 0.01 0.00 73 1026.2
20190122104215 38 69 0.0 0.0 0.00 0.01 0.00 74 1026.3
20190122103713 38 68 0.0 4.0 0.00 0.01 0.00 74 1026.2
20190122103216 38 69 1.0 4.0 0.00 0.01 0.00 74 1026.1
20190122102732 38 70 0.0 0.0 0.00 0.01 0.00 74 1025.9
20190122102227 38 70 0.0 0.0 0.00 0.01 0.00 71 1025.9
20190122101723 39 70 0.0 0.0 0.00 0.01 0.00 71 1026.0
20190122101220 39 70 0.0 0.0 0.00 0.01 0.00 71 1025.9
20190122100716 38 70 0.0 0.0 0.00 0.01 0.00 71 1025.9
20190122100246 38 70 0.0 0.0 0.00 0.01 0.00 74 1025.9
20190122095728 38 70 0.0 0.0 0.00 0.02 0.00 74 1026.0
20190122095222 37 70 0.0 0.0 0.00 0.02 0.00 76 1026.0
20190122094720 37 70 0.0 0.0 0.00 0.02 0.00 78 1026.0
20190122094218 37 70 0.0 0.0 0.00 0.02 0.00 79 1026.0
20190122093713 38 69 0.0 0.0 0.00 0.02 0.00 79 1026.0
20190122093227 38 69 0.0 0.0 0.00 0.02 0.00 79 1025.9
20190122092724 38 69 0.0 0.0 0.00 0.02 0.00 79 1025.9
20190122092221 38 69 0.0 0.0 0.00 0.02 0.00 78 1026.0
20190122091718 38 69 0.0 0.0 0.00 0.02 0.00 78 1025.9
20190122091217 38 69 0.0 0.0 0.00 0.02 0.00 78 1025.8
20190122090716 38 69 0.0 0.0 0.00 0.02 0.00 78 1025.7
20190122090244 38 69 0.0 0.0 0.00 0.02 0.00 77 1025.8
20190122085725 38 69 0.0 0.0 0.00 0.11 0.00 77 1025.7
20190122085221 39 69 0.0 0.0 0.00 0.11 0.00 77 1025.8
20190122084717 39 69 0.0 0.0 0.00 0.11 0.00 77 1025.7
20190122084217 39 69 0.0 0.0 0.00 0.11 0.00 76 1025.7
20190122083714 39 69 0.0 0.0 0.00 0.11 0.00 77 1025.7
20190122083231 38 69 0.0 0.0 0.00 0.11 0.00 78 1025.6
20190122082727 39 69 0.0 0.0 0.00 0.11 0.00 79 1025.4
20190122082223 39 69 0.0 0.0 0.00 0.11 0.00 78 1025.5
20190122081720 39 69 0.0 0.0 0.00 0.11 0.00 78 1025.4
20190122081215 40 69 0.0 0.0 0.00 0.11 0.00 77 1025.6
20190122080732 40 69 0.0 0.0 0.00 0.11 0.00 75 1025.4
20190122080241 40 69 0.0 0.0 0.00 0.11 0.00 75 1025.4
20190122075720 40 69 0.0 0.0 0.00 0.25 0.11 75 1025.4
20190122075222 40 69 0.0 1.0 0.00 0.25 0.11 75 1025.4
20190122074718 40 69 0.0 4.0 0.00 0.25 0.11 76 1025.4
20190122074213 39 74 0.0 0.0 0.00 0.25 0.11 78 1025.4
20190122073727 39 74 0.0 0.0 0.00 0.25 0.11 80 1025.4
20190122073224 39 74 0.0 0.0 0.00 0.25 0.11 81 1025.4
20190122072721 39 74 0.0 0.0 0.00 0.25 0.11 82 1025.4
20190122072216 39 74 0.0 4.0 0.00 0.25 0.11 81 1025.3
20190122071714 39 74 1.0 4.0 0.00 0.25 0.11 81 1025.4
20190122071230 39 98 0.0 2.0 0.00 0.25 0.11 82 1025.4
20190122070727 39 98 0.0 0.0 0.00 0.25 0.11 82 1025.4
20190122070236 39 98 0.0 0.0 0.00 0.25 0.11 82 1025.5
20190122065720 39 98 0.0 0.0 0.00 0.27 0.11 83 1025.6
20190122065215 39 98 0.0 0.0 0.00 0.27 0.11 84 1025.6
20190122064714 38 98 0.0 0.0 0.00 0.27 0.11 85 1025.5
20190122064233 38 98 0.0 0.0 0.00 0.27 0.11 87 1025.5
20190122063728 38 98 0.0 0.0 0.00 0.27 0.11 88 1025.4
20190122063227 38 98 0.0 0.0 0.00 0.27 0.11 89 1025.4
20190122062723 39 98 0.0 0.0 0.00 0.27 0.11 88 1025.4
20190122062219 39 98 0.0 0.0 0.00 0.27 0.11 86 1025.4
20190122061716 39 98 0.0 0.0 0.00 0.27 0.11 85 1025.3
20190122061230 39 98 0.0 0.0 0.00 0.27 0.11 85 1025.3
20190122060726 39 98 0.0 0.0 0.00 0.27 0.11 84 1025.2
20190122060233 39 98 0.0 3.0 0.00 0.27 0.11 83 1025.2
20190122055715 40 100 0.0 5.0 0.00 0.28 0.11 84 1025.2
20190122055232 40 31 1.0 3.0 0.00 0.28 0.11 85 1025.0
20190122054728 40 28 0.0 0.0 0.00 0.28 0.11 86 1025.1
20190122054226 40 28 0.0 0.0 0.00 0.28 0.11 86 1025.0
20190122053720 40 28 0.0 0.0 0.00 0.28 0.11 87 1025.0
20190122053216 40 28 0.0 0.0 0.00 0.28 0.11 88 1025.1
20190122052733 40 28 0.0 0.0 0.00 0.28 0.11 89 1025.0
20190122052229 40 28 0.0 0.0 0.00 0.28 0.11 91 1025.0
20190122051230 41 28 0.0 0.0 0.00 0.28 0.11 92 1024.9
20190122050726 41 28 0.0 0.0 0.00 0.28 0.11 93 1024.9
20190122050234 41 28 0.0 0.0 0.00 0.28 0.11 92 1024.8
20190122045719 41 28 0.0 0.0 0.00 0.34 0.11 92 1024.8
20190122045233 41 28 0.0 0.0 0.00 0.34 0.11 93 1024.7
20190122044731 41 28 0.0 0.0 0.00 0.34 0.11 93 1024.9
20190122044226 41 28 0.0 0.0 0.00 0.34 0.11 92 1024.8
20190122043725 41 28 0.0 0.0 0.00 0.34 0.11 91 1024.9
20190122043221 42 28 0.0 0.0 0.00 0.34 0.11 92 1024.8
20190122042718 42 28 0.0 0.0 0.00 0.34 0.11 92 1024.7
20190122042233 42 28 0.0 0.0 0.00 0.34 0.11 91 1024.6
20190122041730 42 28 0.0 0.0 0.00 0.34 0.11 91 1024.7
20190122041225 42 28 0.0 0.0 0.00 0.34 0.11 91 1024.7
20190122040721 42 28 0.0 0.0 0.00 0.34 0.11 91 1024.6
20190122035722 42 28 0.0 0.0 0.00 0.46 0.11 91 1024.5
20190122035226 42 28 0.0 0.0 0.00 0.46 0.11 90 1024.7
20190122034733 43 28 0.0 0.0 0.00 0.46 0.11 89 1024.7
20190122034225 43 24 0.0 0.0 0.00 0.46 0.11 89 1024.9
20190122033722 43 317 0.0 0.0 0.00 0.46 0.11 90 1024.8
20190122033218 43 317 0.0 0.0 0.00 0.46 0.11 90 1024.6
20190122032718 43 317 0.0 0.0 0.00 0.46 0.11 90 1024.5
20190122032233 43 317 0.0 0.0 0.00 0.46 0.11 89 1024.5
20190122031729 43 317 0.0 0.0 0.00 0.46 0.11 88 1024.5
20190122031226 44 317 0.0 0.0 0.00 0.46 0.11 88 1024.5
20190122030721 44 317 0.0 0.0 0.00 0.46 0.11 88 1024.4